Terug naar catalogus

COSMOS 1348

ActiefMilitairHEO
NORAD 13124·PAYLOAD·🇷🇺 Russia

Gelanceerd Apr 7, 1982 vanaf Plesetsk Cosmodrome

Loading…

Volgende Passages (komende 24 uur)

TLE

VersSource: Space-Track

Epoch: Sep 14, 2026, 09:33 UTC

1 13124U 82029A   26257.39831190  .00000032  00000-0  00000-0 0  9993
2 13124  71.7701 142.3580 4801344 329.6658 246.4929  2.00362270325178

Volg COSMOS 1348 in realtime met AllMySat

Download on the App Store